Starlink 30402

operational
NORAD ID: 57827 Int'l Des: 2023-138 Owner: SPXS Country: US Constellation: starlink
LEOCIRCULAR

About Starlink 30402

Description loading...

Live Position

Loading 3D Globe...

Upcoming Passes

Altitude History

Altitude vs Time

uPlot chart will show altitude changes over time

Two-Line Element Set

1 57827U 23138V 25259.28047776 -.00000039 00000-0 12209-4 0 9991
2 57827 43.0030 103.4801 0001256 264.7053 95.3646 15.02535916112474
Epoch: Sep 16, 2025 • Age: 24 hours

Current Status

Altitude 559.0 km
Velocity 7.59 km/s
Sub-Earth Point 21.26°N, 24.01°E
Launch Date Sep 9, 2023
Age 2 years
Type internet

Technical Details

Classification Payload
Mass 730.00 kg
Dry Mass 700.00 kg
Total Mass 730.00 kg
Length 0.30 m
Diameter 4.10 m
Span 29.00 m
Shape Box + pan
Manufacturer SPXS
Bus Type Starlink V2M
Phase Status In Orbit
Owner/State SPXS/US

Large Constellations

Loading constellations...